Location: G�migny
(47.9646°N, 1.6950°E)
Time: 11:34:24
(UTC+00:00)

SL-08 R/B - Pass Details

Date: 23 October 2019
Orbit: 943 x 1009 km, 82.9° (Epoch: 19 November)

Event Time Altitude Azimuth Distance (km) Brightness Sun altitude
Rises 19:02:34 0° 352° (N) 3,637 7.7 -22.7°
Reaches altitude 10° 19:05:05 10° 354° (N) 2,682 7.0 -23.1°
Maximum altitude 19:11:13 75° 80° (E) 979 4.3 -24.1°
Enters shadow 19:13:58 34° 159° (SSE) 1,494 5.2 -24.6°
